Location: ??????
(55.2000°N, 38.3000°E)
Time: 08:54:45
(UTC+00:00)

NOSS 2-1 (C) - Pass Details

Date: 15 November 2025
Orbit: 375 x 1687 km, 63.3° (Epoch: 14 December)

Event Time Altitude Azimuth Distance (km) Brightness Sun altitude
Exits shadow 03:52:38 12° 312° (NW) 1,264 4.6 -9.4°
Maximum altitude 03:54:25 19° 354° (N) 996 4.4 -9.2°
Drops below altitude 10° 03:56:42 10° 43° (NE) 1,444 5.8 -8.9°
Sets 03:59:15 0° 63° (ENE) 2,399 7.3 -8.6°
